Nenana, AK

5:34 AM AKST on January 18, 2017 (GMT -0900)
Nenana Municipal

Weather History for PANN - February, 2013

Change the Weather History Date:

Monday, February 25, 2013

  Actual Average Record
Temperature  
Mean Temperature 9 °F -  
Max Temperature 35 °F 12 °F 55 °F (1992)
Min Temperature -17 °F -10 °F -36 °F (2007)
Degree Days  
Heating Degree Days 56    
Moisture  
Dew Point -11 °F    
Average Humidity 71    
Maximum Humidity 89    
Minimum Humidity 50    
Precipitation  
Precipitation 0.00 in - - ()
Sea Level Pressure  
Sea Level Pressure 29.81 in    
Wind  
Wind Speed 1 mph (ENE)    
Max Wind Speed 5 mph    
Max Gust Speed -    
Visibility 10 miles    
Events      
Averages and records for this station are not official NWS values.
T = Trace of Precipitation, MM = Missing Value Source: NWS Daily Summary

Daily Weather History Graph

Daily Weather History Graph

Search for Another Location

Airport or City:

Trip Planner

Search our weather history database for the weather conditions in past years. The results will help you decide how hot, cold, wet, or windy it might be!

Date:

Astronomy

Feb. 25, 2013 Rise Set
Actual Time 8:17 AM AKST 6:02 PM AKST
Civil Twilight 7:27 AM AKST 6:52 PM AKST
Nautical Twilight 6:32 AM AKST 7:48 PM AKST
Astronomical Twilight 5:35 AM AKST 8:45 PM AKST
Moon 6:53 PM AKST (2/25) 7:36 AM AKST (2/25)
Length of Visible Light 11h 24m
Length of Day
9h 45m
Full, 100% of the Moon is Illuminated
Feb 25
Full
Mar 4
Last Quarter
Mar 11
New
Mar 19
First Quarter
Mar 27
Full

Hourly Weather History & Observations

Time (AKST) Temp. Windchill Dew Point Humidity Pressure Visibility Wind Dir Wind Speed Gust Speed Precip Events Conditions
12:53 AM -16.1 °F - -20.9 °F 79% 29.77 in 10.0 mi Calm Calm - N/A   Clear
1:53 AM -14.1 °F - -18.9 °F 79% 29.79 in 10.0 mi Calm Calm - N/A   Mostly Cloudy
3:53 AM -16.1 °F - -22.0 °F 74% 29.78 in 10.0 mi Calm Calm - N/A   Clear
4:53 AM -17.0 °F - -22.0 °F 78% 29.80 in 10.0 mi Calm Calm - N/A   Clear
5:53 AM -17.0 °F - -23.1 °F 74% 29.80 in 10.0 mi Calm Calm - N/A   Clear
6:53 AM -17.0 °F - -23.1 °F 74% 29.81 in 10.0 mi Calm Calm - N/A   Clear
7:53 AM -18.0 °F - -24.0 °F 74% 29.80 in 10.0 mi Calm Calm - N/A   Clear
8:53 AM -17.0 °F - -23.1 °F 74% 29.80 in 10.0 mi Calm Calm - N/A   Clear
9:53 AM -13.0 °F -22.7 °F -18.9 °F 75% 29.81 in 10.0 mi South 3.5 mph - N/A   Clear
10:53 AM -9.0 °F - -16.1 °F 71% 29.81 in 10.0 mi Calm Calm - N/A   Clear
11:53 AM -4.0 °F -14.6 °F -13.0 °F 65% 29.81 in 10.0 mi South 4.6 mph - N/A   Clear
12:53 PM 1.9 °F - -9.9 °F 58% 29.79 in 10.0 mi Calm Calm - N/A   Clear
1:53 PM 3.9 °F - -8.0 °F 58% 29.79 in 10.0 mi Calm Calm - N/A   Clear
2:53 PM 5.0 °F -2.1 °F -7.1 °F 58% 29.79 in 10.0 mi East 3.5 mph - N/A   Clear
3:53 PM 8.1 °F 1.4 °F -7.1 °F 50% 29.77 in 10.0 mi East 3.5 mph - N/A   Clear
4:53 PM 8.1 °F - -6.0 °F 53% 29.78 in 10.0 mi Calm Calm - N/A   Clear
5:53 PM 5.0 °F -2.1 °F -6.0 °F 61% 29.78 in 10.0 mi NNW 3.5 mph - N/A   Clear
6:53 PM 3.0 °F -4.4 °F -8.0 °F 60% 29.78 in 10.0 mi NW 3.5 mph - N/A   Clear
7:53 PM 1.0 °F - -8.0 °F 66% 29.80 in 10.0 mi Calm Calm - N/A   Clear
8:53 PM -7.1 °F -18.1 °F -13.0 °F 75% 29.80 in 10.0 mi NNW 4.6 mph - N/A   Clear
9:53 PM -9.9 °F - -15.0 °F 78% 29.80 in 10.0 mi Calm Calm - N/A   Clear
10:53 PM -11.9 °F - -17.0 °F 78% 29.81 in 10.0 mi Calm Calm - N/A   Clear
11:53 PM -13.0 °F - -18.0 °F 78% 29.81 in 10.0 mi Calm Calm - N/A   Clear